Regional Weather Roundup
Issued by NWS

Home | Current Version | Previous Version | Text Only | Print | Product List | Glossary On
Versions: 1 2 3 4 5 6 7 8 9 10 11 12 13 14 15 16 17 18 19 20 21 22 23 24 25 26 27 28 29 30 31 32 33 34 35 36 37 38 39 40 41 42 43 44 45 46 47 48 49 50
000
ASUS43 KDTX 222210
RWRMI
MICHIGAN HOURLY REGIONAL WEATHER ROUNDUP
NATIONAL WEATHER SERVICE DETROIT/PONTIAC MI
600 PM EDT WED OCT 22 2014

NOTE: "FAIR" INDICATES FEW OR NO CLOUDS BELOW 12,000 FEET WITH NO
SIGNIFICANT WEATHER AND/OR OBSTRUCTION TO VISIBILITY.

MIZ047>049-052>055-059>063-066>070-074>076-081>083-222300-
SOUTHEAST LOWER MICHIGAN

CITY           SKY/WX    TMP DP  RH WIND       PRES   REMARKS
ADRIAN         PTCLDY    51  40  65 N3        30.29F
ALMA           CLOUDY    47  38  72 N5        30.33S
ANN ARBOR      CLEAR     53  38  56 N7        30.28S
BAD AXE        MOCLDY    44  38  82 N7        30.32F
DETROIT CITY   CLEAR     56  39  53 N10       30.28F
DETROIT        PTCLDY    54  39  57 NW9       30.28F
FLINT          CLOUDY    50  39  66 N9        30.31F
GROSSE ILE     PTCLDY    55  39  54 N8        30.27R
HILLSDALE      MOCLDY    47  41  77 N6        30.29S
HOWELL         CLOUDY    48  39  71 N3        30.29F

CITY           SKY/WX    TMP DP  RH WIND       PRES   REMARKS
JACKSON        MOCLDY    47  38  71 N5        30.30S
LAMBERTVILLE   PTCLDY    54  39  58 CALM      30.28S
LANSING        CLOUDY    47  38  71 VRB3      30.33S
LAPEER         NOT AVBL
MASON          CLOUDY    47  39  75 N3        30.31S
MONROE         PTCLDY    54  41  62 N5        30.26S
MT. CLEMENS    PTCLDY    51  40  63 N10       30.26S
PONTIAC        PTCLDY    51  38  60 N6        30.28F
PORT HOPE        N/A     47  38  71 CALM      30.31F
PORT HURON     CLEAR     48  41  76 N9        30.29S
TRI CITIES     CLOUDY    48  38  68 N5        30.33F
YPSILANTI      CLEAR     56  39  53 N8        30.28F
$$
MIZ043>046-050>051-056>058-064>065-071>073-077>080-222300-
SOUTHWEST LOWER MICHIGAN

CITY           SKY/WX    TMP DP  RH WIND       PRES   REMARKS
BATTLE CREEK   MOCLDY    49  38  65 CALM      30.31F
BENTON HARBOR  CLEAR     49  38  65 VRB5      30.30F
BIG RAPIDS     CLEAR     49  35  59 CALM      30.30F
COLDWATER      CLOUDY    47  40  75 N5        30.30F
HOLLAND        CLEAR     53  38  56 N5        30.31F
GRAND RAPIDS   PTCLDY    49  39  68 CALM      30.31F
KALAMAZOO      PTCLDY    50  38  63 N3        30.31F
MARSHALL       CLOUDY    46  38  75 E3        30.30F
MUSKEGON       PTCLDY    49  36  61 W6        30.31F
$$
MIZ016>042-222300-
NORTHERN LOWER MICHIGAN

CITY           SKY/WX    TMP DP  RH WIND       PRES   REMARKS
ALPENA         CLEAR     46  34  62 E7        30.32F
BEAVER ISLAND  CLEAR     46  37  70 CALM      30.32F
BELLAIRE       CLEAR     48  33  55 CALM      30.31F
CADILLAC       CLEAR     46  32  58 CALM      30.29F
CHARLEVOIX     CLEAR     45  37  75 W5        30.34F
FRANKFORT      CLEAR     46  35  66 CALM      30.31F
GAYLORD        CLEAR     50  29  44 CALM      30.29F
GRAYLING       CLEAR     47  32  56 CALM      30.31F
HARBOR SPRINGS CLEAR     48  37  65 SW5       30.31F
HOUGHTON LAKE  CLEAR     47  35  63 W3        30.31F
MANISTEE       CLEAR     45  34  65 NW5       30.32F
OSCODA         CLEAR     45  36  70 NE8       30.32F
PELLSTON       CLEAR     49  36  61 NW5       30.31F
TRAVERSE CITY  CLEAR     47  34  60 NE5       30.30F
$$
MIZ007>008-015-222300-
EASTERN UPPER MICHIGAN

CITY           SKY/WX    TMP DP  RH WIND       PRES   REMARKS
KINROSS        CLEAR     48  34  57 SE7       30.31F
MACKINAC ISLAN CLEAR     45  33  62 E5        30.31F
NEWBERRY       CLEAR     45  32  60 S8        30.30F
S. S. MARIE    CLEAR     48  29  47 SE6       30.30F
$$
MIZ004>006-011>014-085-222300-
CENTRAL UPPER MICHIGAN

CITY           SKY/WX    TMP DP  RH WIND       PRES   REMARKS
MANISTIQUE     CLEAR     43  35  73 S6        30.31F
ESCANABA       PTCLDY    45  36  70 SE9       30.29F
MENOMINEE      CLEAR     46  36  66 S7        30.28F
SAWYER-GWINN   CLEAR     48  34  57 S12       30.25F
$$
MIZ001>003-009>011-084-222300-
WESTERN UPPER MICHIGAN

CITY           SKY/WX    TMP DP  RH WIND       PRES   REMARKS
IRON MOUNTAIN  CLEAR     51  32  48 S10       30.24F
HOUGHTON       CLEAR     50  35  56 E6        30.17F
COPPER HARBOR    N/A     49  38  65 S10G22    30.18F
IRONWOOD       CLEAR     57  27  30 S9G17     30.11F
$$

ABBREVIATIONS USED IN REMARKS
   TC - TEMPERATURE IN CELSIUS
  WCI - WIND CHILL INDEX
   HX - HEAT INDEX
  VSB - VISIBILITY




USA.gov is the U.S. government's official web portal to all federal, state and local government web resources and services.